Location: Poughquag
(41.6090°N, 73.6820°W)
Time: 03:22:00
(UTC-04:00)

Vanguard 2 Rocket - Pass Details

Date: 03 June 2020
Orbit: 556 x 3324 km, 32.9° (Epoch: 06 July)

Event Time Altitude Azimuth Distance (km) Brightness Sun altitude
Rises 12:45:34 0° 189° (S) 2,997 9.8 70.8°
Reaches altitude 10° 12:50:04 10° 148° (SSE) 2,483 9.6 70.8°
Maximum altitude 12:51:08 11° 137° (SE) 2,557 9.6 70.8°
Drops below altitude 10° 12:52:16 10° 126° (SE) 2,714 9.7 70.8°
Sets 12:58:43 0° 91° (E) 4,425 10.4 70.8°
